Accueil
METAR-TAF:

METAR-TAF

Aéroports :

Alpnach, Suisse

latitude: 46-56-19N, longitude: 8-17-03E, altitude: 440 m

Observation

Le bulletin a été fait il y a 1 heure et 15 minutes, à 21:50 UTC
Vent 2 kt de direction variable
Température 2°C
Humidité 93%
Pression 1016 hPa
Visibilité 10 km ou plus
Quelques nuages à une hauteur de 800 ft
Nuages fragmentés à une hauteur de 1300 ft
Ciel couvert à une hauteur de 3900 ft
faibles averses de pluie

METAR: LSMA 192150Z AUTO VRB02KT 9999NDV -SHRA FEW008 BKN013 OVC039 02/01 Q1016 RESHRA RMK

Heure: 00:05 (23:05 UTC)


TAF: absent

Observations et prévisions météorologiques de plus de 4000 aéroports (messages METAR et TAF).

Les stations disponibles sont représentées par des disques jaunes et rouges sur la carte.

Passer la souris dessus pour voir le nom de la station.

Cliquer dessus pour voir les observations et prévisions météorologiques.

Pour changer de carte: cliquez sur les boutons verts avec une croix noire pour zoomer, sur le bouton vert avec un tiret pour effectuer un zoom arrière, ou sur les flèches vertes pour les cartes adjacentes.


METAR-TAF: